Regional Weather Roundup
Issued by NWS

Home | Current Version | Previous Version | Graphics & Text | Print | Product List | Glossary On
Versions: 1 2 3 4 5 6 7 8 9 10 11 12 13 14 15 16 17 18 19 20 21 22 23 24 25 26 27 28 29 30 31 32 33 34 35 36 37 38 39 40 41 42 43 44 45 46 47 48 49 50
522
ASUS43 KIND 110709
RWRIN

WEATHER ROUNDUP FOR INDIANA
NATIONAL WEATHER SERVICE INDIANAPOLIS IN
200 AM EST THU FEB 11 2016

NOTE: "FAIR" INDICATES FEW OR NO CLOUDS BELOW 12,000 FEET WITH NO
SIGNIFICANT WEATHER AND/OR OBSTRUCTIONS TO VISIBILITY.

* - STATION DOES NOT REPORT WEATHER SUCH AS PRECIPITATION OR FOG.

+ - STATION NOT QUALITY CONTROLLED BY THE NATIONAL WEATHER SERVICE.
    USE DATA WITH CAUTION...ESPECIALLY DEWPOINT AND RELATIVE
    HUMIDITY OBSERVATIONS.

INZ001>003-010>013-019-020-110800-
NORTHWEST INDIANA

CITY           SKY/WX    TMP DP  RH WIND       PRES   REMARKS
GARY /AIRPORT/ CLOUDY    16   3  57 NW9       30.17S WCI   4
KNOX *+        CLEAR     14   5  67 W9        30.13S WCI   2
LA PORTE +     MOCLDY    17  10  74 W8        30.12S WCI   6
MICHIGAN CITY+ CLOUDY    18   9  68 W8        30.13S WCI   7
MONTICELLO +   MOCLDY    10   2  70 W3        30.14S
RENSSELAER +   CLEAR     12   3  67 W5        30.16R WCI   4
VALPARAISO     CLOUDY    12   4  70 W8        30.14S WCI   0

$$

LMZ046-743>745-110800-
SOUTHERN LAKE MICHIGAN

STATION/POSITION TIME  TEMP    WIND        PRES    WAVE
                       AIR SEA DIR/SP/G            HT
                 (UTC) (F)     (DEG/KT/KT) (MB)    (FT)
BURNS HARBOR     0600   17     320/ 12/ 18 1021.3S
MICHIGAN CITY    0600   17     290/ 14/ 17   N/A

$$

INZ004-005-014>016-021>024-110800-
NORTH CENTRAL INDIANA

CITY           SKY/WX    TMP DP  RH WIND       PRES   REMARKS
GOSHEN         CLOUDY    14   9  80 W10       30.09S WCI   1
LOGANSPORT +   CLEAR     12   1  62 NW5       30.14S WCI   4
PERU/GRISSOM   PTCLDY     8   2  78 W7        30.10S WCI  -3
ROCHESTER +    CLEAR     16   5  62 W8        30.12S WCI   5
SOUTH BEND     LGT SNOW  12  10  92 W8        30.10F FOG     WCI   0
WARSAW +       FLURRIES  12  10  92 W7        30.10S WCI   2

$$

INZ006>009-017-018-025>027-110800-
NORTHEAST INDIANA

CITY           SKY/WX    TMP DP  RH WIND       PRES   REMARKS
ANGOLA *+      CLOUDY    12   9  85 W5        30.06S WCI   4
AUBURN +       LGT SNOW  18  12  79 W6        30.09S WCI   9
FORT WAYNE     MOCLDY    16   7  67 W8        30.11S WCI   5
HUNTINGTON +   MOCLDY    10   2  69 W5        30.11S WCI   2

$$

INZ028-029-035-036-043>045-051>053-110800-
WEST CENTRAL INDIANA

CITY           SKY/WX    TMP DP  RH WIND       PRES   REMARKS
GREENCASTLE +  PTCLDY    10   3  72 CALM      30.15S
LAFAYETTE      CLOUDY    10   7  87 W3        30.17R
TERRE HAUTE    CLOUDY    16  10  77 CALM      30.18R

$$

INZ030>032-037>040-046>048-054>057-064-065-110800-
CENTRAL INDIANA

CITY           SKY/WX    TMP DP  RH WIND       PRES   REMARKS
FISHERS *+     CLOUDY    12   9  85 W6        30.15R WCI   3
FRANKFORT +    PTCLDY    10   3  71 SW6       30.15R WCI   1
GREENWOOD *+   PTCLDY     9   7  92 CALM      30.15S
INDIANAPOLIS   CLOUDY    12   6  77 W5        30.14R WCI   4
-EAGLE CREEK   CLOUDY    12   6  77 CALM      30.14S
KOKOMO *+      CLEAR     10   1  67 W6        30.13R WCI   1
MARION +       CLEAR      4  -4  69 W6        30.12S WCI  -7
MT COMFORT *+  MOCLDY     9   5  85 W5        30.14S WCI   0
SHELBYVILLE    PTCLDY    12   6  77 SW3       30.14S
ZIONSVILLE +   CLOUDY     9   5  83 W6        30.14R WCI   0

$$

INZ033-034-041-042-049-050-058-059-110800-
EAST CENTRAL INDIANA

CITY           SKY/WX    TMP DP  RH WIND       PRES   REMARKS
MUNCIE         CLEAR     12   6  77 W5        30.11S WCI   4

$$

INZ060-061-067>069-081>083-085>088-110800-
SOUTHWEST INDIANA

CITY           SKY/WX    TMP DP  RH WIND       PRES   REMARKS
EVANSVILLE     CLOUDY    24  17  74 N6        30.19F WCI  17
HUNTINGBURG *+ CLOUDY    21  16  79 NW3       30.19S
WASHINGTON +   CLOUDY    20  14  78 CALM      30.19S

$$

INZ062-063-066-070>080-084-089>092-110800-
SOUTH CENTRAL AND SOUTHEAST INDIANA

CITY           SKY/WX    TMP DP  RH WIND       PRES   REMARKS
BEDFORD +      CLOUDY    18  12  79 CALM      30.16S
BLOOMINGTON    CLOUDY    12   7  80 CALM      30.15S
MADISON *+     PTCLDY    14   9  79 CALM      30.17S
NORTH VERNON + PTCLDY     9   7  92 CALM      30.16S
SEYMOUR +      CLEAR     16   9  73 CALM      30.17S

$$





USA.gov is the U.S. government's official web portal to all federal, state and local government web resources and services.